Date String (YYYY-MM-DD hh:mm:ss) UTC,Instrument flags,absolute air pressure of the measurement (hPa),sample flow rate (lpm),inlet stack bypass flow (lpm),air temperature of the measurement (°C),ambient temperature measured by the external sensor (°C),aerosol sample conditioner tube jacket temperature (°C),OPC LED temperature (°C),internal box temperature (°C),relative humidity of the measurement (%),span deviation,mass concentration of particles derived from Lorenz-Mie calculation of OPC scattering (μg/m³),mass concentration of particles derived from Lorenz-Mie calculation of OPC scattering (μg/m³),mass concentration of particles derived from Lorenz-Mie calculation of OPC scattering (μg/m³)
DateTimeUTC,F1_M11,P_M11,Q1_M11,Q2_M11,T1_M11,T2_M11,T3_M11,T4_M11,T5_M11,U1_M11,ZSPAN_M11,X2_M11,X0_M11,X1_M11
2024-03-08 10:00:00,SystemResetWarning,0828.3,4.99,000.00,018.9,019.0,000.0,027.3,021.0,20.4,0000.0,0004.25,0005.84,0004.08
2024-03-08 10:01:00,SystemResetWarning,0828.3,5.01,000.00,018.9,018.8,000.0,027.3,020.9,20.4,0000.0,0004.29,0005.96,0004.10
2024-03-08 10:02:00,SystemResetWarning,0828.3,5.00,000.00,018.9,018.6,000.0,027.3,020.8,20.4,0000.0,0004.30,0005.99,0004.12
2024-03-08 10:03:00,SystemResetWarning,0828.3,5.00,000.00,018.9,018.5,000.0,027.3,020.7,20.4,0000.0,0004.34,0006.16,0004.14
2024-03-08 10:04:00,SystemResetWarning,0828.3,5.00,000.00,018.8,018.3,000.0,027.3,020.6,20.5,0000.0,0004.37,0006.25,0004.16
2024-03-08 10:05:00,SystemResetWarning,0828.3,4.99,000.00,018.8,018.2,000.0,027.3,020.6,20.5,0000.0,0004.40,0006.28,0004.19
2024-03-08 10:06:00,SystemResetWarning,0828.3,5.02,000.00,018.8,018.1,000.0,027.3,020.5,20.5,0000.0,0004.43,0006.32,0004.23
2024-03-08 10:07:00,SystemResetWarning,0828.3,5.00,000.00,018.7,018.0,000.0,027.3,020.5,20.6,0000.0,0004.47,0006.37,0004.28
2024-03-08 10:08:00,SystemResetWarning,0828.4,4.99,000.00,018.7,018.0,000.0,027.3,020.4,20.6,0000.0,0004.52,0006.47,0004.32
2024-03-08 10:09:00,SystemResetWarning,0828.3,4.99,000.00,018.7,017.9,000.0,027.3,020.4,20.6,0000.0,0004.55,0006.50,0004.36
2024-03-08 10:10:00,SystemResetWarning,0828.3,5.00,000.00,018.7,017.8,000.0,027.3,020.4,20.6,0000.0,0004.61,0006.67,0004.40
2024-03-08 10:11:00,SystemResetWarning,0828.4,5.00,000.00,018.6,017.8,000.0,027.3,020.3,20.7,0000.0,0004.63,0006.72,0004.43
2024-03-08 10:12:00,SystemResetWarning,0828.4,5.00,000.00,018.6,017.7,000.0,027.2,020.3,20.7,0000.0,0004.62,0006.65,0004.44
2024-03-08 10:13:00,SystemResetWarning,0828.4,5.00,000.00,018.6,017.7,000.0,027.2,020.3,20.7,0000.0,0004.65,0006.70,0004.47
2024-03-08 10:14:00,SystemResetWarning,0828.4,5.00,000.00,018.5,017.7,000.0,027.2,020.3,20.7,0000.0,0004.64,0006.59,0004.50
2024-03-08 10:15:00,SystemResetWarning,0828.4,5.00,000.00,018.5,017.6,000.0,027.2,020.3,20.8,0000.0,0004.67,0006.69,0004.51
2024-03-08 10:16:00,SystemResetWarning,0828.4,5.00,000.00,018.5,017.6,000.0,027.2,020.3,20.8,0000.0,0004.70,0006.93,0004.53
2024-03-08 10:17:00,SystemResetWarning,0828.4,4.99,000.00,018.5,017.6,000.0,027.2,020.2,20.9,0000.0,0004.70,0006.98,0004.52
2024-03-08 10:18:00,SystemResetWarning,0828.4,5.00,000.00,018.5,017.6,000.0,027.2,020.2,20.9,0000.0,0004.69,0006.94,0004.52
2024-03-08 10:19:00,SystemResetWarning,0828.4,5.00,000.00,018.5,017.7,000.0,027.2,020.3,20.9,0000.8,0004.67,0006.91,0004.51
2024-03-08 10:20:00,SystemResetWarning,0828.4,5.02,000.00,018.6,018.5,000.0,027.3,020.8,20.8,0002.3,0004.67,0006.93,0004.50
2024-03-08 10:21:00,SystemResetWarning,0828.5,4.99,000.00,018.9,019.2,000.0,027.4,021.2,20.5,0002.3,0004.66,0006.97,0004.49
2024-03-08 10:22:00,SystemResetWarning,0828.4,4.99,000.00,018.9,019.1,000.0,027.3,021.1,20.4,0002.2,0004.68,0007.12,0004.50
2024-03-08 10:23:00,SystemResetWarning,0828.4,5.01,000.00,018.9,018.9,000.0,027.3,021.0,20.4,0001.8,0004.69,0007.22,0004.50
2024-03-08 10:24:00,SystemResetWarning,0828.4,5.00,000.00,018.9,018.7,000.0,027.3,020.9,20.4,0001.5,0004.68,0007.25,0004.48
2024-03-08 10:25:00,SystemResetWarning,0828.4,5.00,000.00,018.9,018.6,000.0,027.3,020.8,20.4,0001.3,0004.68,0007.29,0004.48
2024-03-08 10:26:00,SystemResetWarning,0828.5,4.99,000.00,018.9,018.4,000.0,027.3,020.7,20.4,0001.7,0004.70,0007.31,0004.49
2024-03-08 10:27:00,SystemResetWarning,0828.4,4.99,000.00,018.9,018.3,000.0,027.3,020.7,20.5,0001.5,0004.68,0007.20,0004.49
2024-03-08 10:28:00,SystemResetWarning,0828.5,4.99,000.00,018.8,018.2,000.0,027.3,020.6,20.5,0001.5,0004.69,0007.20,0004.50
2024-03-08 10:29:00,SystemResetWarning,0828.5,5.01,000.00,018.8,018.1,000.0,027.3,020.6,20.6,0001.6,0004.67,0007.17,0004.49
2024-03-08 10:30:00,SystemResetWarning,0828.5,5.01,000.00,018.8,018.0,000.0,027.3,020.5,20.6,0001.7,0004.67,0007.15,0004.48
2024-03-08 10:31:00,SystemResetWarning,0828.5,5.00,000.00,018.7,018.0,000.0,027.3,020.5,20.7,0001.7,0004.66,0007.12,0004.47
2024-03-08 10:32:00,SystemResetWarning,0828.5,4.99,000.00,018.7,017.9,000.0,027.3,020.5,20.8,0002.1,0004.64,0007.02,0004.45
2024-03-08 10:33:00,SystemResetWarning,0828.5,5.00,000.00,018.7,017.9,000.0,027.3,020.4,20.8,0002.2,0004.61,0006.89,0004.43
2024-03-08 10:34:00,SystemResetWarning,0828.6,5.00,000.00,018.7,017.8,000.0,027.3,020.4,20.8,0002.3,0004.59,0006.79,0004.42
2024-03-08 10:35:00,SystemResetWarning,0828.6,5.00,000.00,018.6,017.8,000.0,027.3,020.4,20.9,0002.4,0004.58,0006.98,0004.41
2024-03-08 10:36:00,SystemResetWarning,0828.5,5.01,000.00,018.6,017.7,000.0,027.3,020.3,20.9,0002.4,0004.56,0007.13,0004.38
2024-03-08 10:37:00,SystemResetWarning,0828.5,5.00,000.00,018.6,017.7,000.0,027.3,020.3,22.0,0002.2,0004.53,0007.02,0004.36
2024-03-08 10:38:00,SystemResetWarning,0828.5,5.01,000.00,018.6,017.7,000.0,027.2,020.3,24.0,0002.2,0004.53,0006.99,0004.36
2024-03-08 10:39:00,SystemResetWarning,0828.5,5.00,000.00,018.5,017.7,000.0,027.2,020.3,22.6,0002.3,0004.52,0006.98,0004.34
2024-03-08 10:40:00,SystemResetWarning,0828.6,5.00,000.00,018.5,017.6,000.0,027.2,020.3,21.7,0002.5,0004.53,0007.06,0004.33
2024-03-08 10:41:00,SystemResetWarning,0828.5,4.99,000.00,018.5,017.6,000.0,027.2,020.2,21.5,0002.4,0004.51,0007.01,0004.33
2024-03-08 10:42:00,SystemResetWarning,0828.5,5.00,000.00,018.5,017.6,000.0,027.2,020.2,21.4,0002.6,0004.50,0006.97,0004.32
2024-03-08 10:43:00,SystemResetWarning,0828.6,5.00,000.00,018.5,017.6,000.0,027.2,020.2,21.4,0002.8,0004.48,0006.94,0004.30
2024-03-08 10:44:00,SystemResetWarning,0828.6,5.01,000.00,018.4,017.6,000.0,027.1,020.2,21.3,0002.8,0004.47,0006.90,0004.30
2024-03-08 10:45:00,SystemResetWarning,0828.6,5.02,000.00,018.4,017.7,000.0,027.2,020.2,21.3,0002.9,0004.48,0006.91,0004.30
2024-03-08 10:46:00,SystemResetWarning,0828.6,5.00,000.00,018.6,018.3,000.0,027.3,020.7,21.2,0003.1,0004.48,0006.68,0004.31
2024-03-08 10:47:00,SystemResetWarning,0828.7,4.99,000.00,018.8,019.1,000.0,027.4,021.1,20.9,0003.1,0004.49,0006.49,0004.33
2024-03-08 10:48:00,SystemResetWarning,0828.7,5.00,000.00,018.9,019.0,000.0,027.3,021.1,20.8,0003.4,0004.50,0006.54,0004.33
2024-03-08 10:49:00,SystemResetWarning,0828.7,4.99,000.00,018.9,018.9,000.0,027.3,020.9,20.7,0003.3,0004.48,0006.45,0004.31
2024-03-08 10:50:00,SystemResetWarning,0828.7,5.00,000.00,018.9,018.7,000.0,027.3,020.8,20.7,0003.2,0004.48,0006.39,0004.32
2024-03-08 10:51:00,SystemResetWarning,0828.8,5.00,000.00,018.8,018.5,000.0,027.3,020.7,20.7,0003.2,0004.47,0006.32,0004.33
2024-03-08 10:52:00,SystemResetWarning,0828.8,4.99,000.00,018.8,018.4,000.0,027.3,020.7,20.8,0003.2,0004.46,0006.30,0004.33
2024-03-08 10:53:00,SystemResetWarning,0828.7,5.01,000.00,018.8,018.3,000.0,027.3,020.6,20.8,0003.4,0004.47,0006.28,0004.33
2024-03-08 10:54:00,SystemResetWarning,0828.7,5.01,000.00,018.8,018.2,000.0,027.3,020.6,20.9,0003.1,0004.48,0006.30,0004.35
2024-03-08 10:55:00,SystemResetWarning,0828.7,4.99,000.00,018.8,018.1,000.0,027.3,020.5,20.9,0002.9,0004.49,0006.30,0004.35
2024-03-08 10:56:00,SystemResetWarning,0828.8,4.99,000.00,018.7,018.0,000.0,027.3,020.5,20.9,0003.0,0004.48,0006.26,0004.35
2024-03-08 10:57:00,SystemResetWarning,0828.8,4.99,000.00,018.7,017.9,000.0,027.3,020.4,21.0,0002.6,0004.47,0006.22,0004.34
2024-03-08 10:58:00,SystemResetWarning,0828.8,5.01,000.00,018.7,017.9,000.0,027.3,020.4,20.9,0002.4,0004.46,0006.98,0004.33
2024-03-08 10:59:00,SystemResetWarning,0828.8,5.01,000.00,018.7,017.8,000.0,027.3,020.4,21.0,0001.8,0004.45,0007.14,0004.33
